TimeCST,TemperatureF,Dew PointF,Humidity,Sea Level PressureIn,VisibilityMPH,Wind Direction,Wind SpeedMPH,Gust SpeedMPH,PrecipitationIn,Events,Conditions,WindDirDegrees,DateUTC
12:53 AM,55.0,46.9,74,29.97,10.0,South,12.7,19.6,N/A,,Clear,180,2013-12-19 06:53:00
1:53 AM,54.0,48.0,80,29.95,10.0,South,13.8,23.0,N/A,,Clear,170,2013-12-19 07:53:00
2:53 AM,53.1,48.9,86,29.94,10.0,SSE,12.7,-,N/A,,Clear,160,2013-12-19 08:53:00
3:53 AM,52.0,48.9,89,29.94,10.0,South,11.5,-,N/A,,Mostly Cloudy,170,2013-12-19 09:53:00
4:53 AM,53.1,50.0,89,29.92,10.0,South,10.4,17.3,N/A,,Overcast,170,2013-12-19 10:53:00
5:53 AM,54.0,50.0,86,29.90,10.0,SSE,13.8,23.0,N/A,,Overcast,160,2013-12-19 11:53:00
6:15 AM,55.4,51.8,88,29.90,10.0,SSE,17.3,25.3,N/A,,Scattered Clouds,160,2013-12-19 12:15:00
6:28 AM,55.4,51.8,88,29.90,10.0,SSE,16.1,24.2,N/A,,Mostly Cloudy,160,2013-12-19 12:28:00
6:53 AM,54.0,51.1,90,29.89,10.0,SSE,13.8,20.7,N/A,,Overcast,160,2013-12-19 12:53:00
7:53 AM,55.0,51.1,86,29.90,10.0,SSE,15.0,19.6,N/A,,Overcast,160,2013-12-19 13:53:00
8:53 AM,55.9,51.1,84,29.91,10.0,SSE,13.8,23.0,N/A,,Overcast,160,2013-12-19 14:53:00
9:04 AM,55.4,51.8,88,29.92,10.0,SSE,15.0,20.7,N/A,,Overcast,160,2013-12-19 15:04:00
9:12 AM,57.2,51.8,82,29.92,10.0,SSE,12.7,20.7,N/A,,Mostly Cloudy,160,2013-12-19 15:12:00
9:45 AM,59.0,53.6,82,29.91,10.0,SSE,15.0,31.1,N/A,,Mostly Cloudy,160,2013-12-19 15:45:00
9:53 AM,59.0,53.1,81,29.90,10.0,SSE,17.3,28.8,N/A,,Mostly Cloudy,160,2013-12-19 15:53:00
10:19 AM,62.6,53.6,72,29.91,10.0,South,17.3,28.8,N/A,,Scattered Clouds,170,2013-12-19 16:19:00
10:32 AM,62.6,55.4,77,29.90,10.0,SSE,20.7,31.1,N/A,,Mostly Cloudy,160,2013-12-19 16:32:00
10:41 AM,62.6,55.4,77,29.89,10.0,South,17.3,28.8,N/A,,Scattered Clouds,170,2013-12-19 16:41:00
10:53 AM,63.0,55.0,75,29.88,10.0,South,20.7,31.1,N/A,,Mostly Cloudy,170,2013-12-19 16:53:00
11:40 AM,64.4,55.4,73,29.87,10.0,South,20.7,31.1,N/A,,Mostly Cloudy,180,2013-12-19 17:40:00
11:49 AM,64.4,55.4,73,29.86,10.0,South,18.4,31.1,N/A,,Mostly Cloudy,170,2013-12-19 17:49:00
11:53 AM,64.9,55.0,70,29.85,10.0,South,16.1,26.5,N/A,,Mostly Cloudy,170,2013-12-19 17:53:00
12:28 PM,66.2,55.4,68,29.83,10.0,South,15.0,24.2,N/A,,Overcast,170,2013-12-19 18:28:00
12:53 PM,69.1,55.9,63,29.80,10.0,South,17.3,26.5,N/A,,Overcast,170,2013-12-19 18:53:00
1:53 PM,71.1,55.9,59,29.76,10.0,South,20.7,36.8,N/A,,Mostly Cloudy,170,2013-12-19 19:53:00
2:53 PM,73.0,55.9,55,29.75,10.0,South,19.6,29.9,N/A,,Scattered Clouds,180,2013-12-19 20:53:00
3:53 PM,73.0,55.9,55,29.75,10.0,South,17.3,29.9,N/A,,Partly Cloudy,180,2013-12-19 21:53:00
4:53 PM,72.0,55.9,57,29.73,10.0,South,18.4,28.8,N/A,,Clear,170,2013-12-19 22:53:00
5:53 PM,70.0,57.0,63,29.75,10.0,South,10.4,-,N/A,,Clear,170,2013-12-19 23:53:00
6:53 PM,66.9,55.9,68,29.75,10.0,SSE,9.2,-,N/A,,Clear,150,2013-12-20 00:53:00
7:53 PM,66.0,57.0,73,29.74,10.0,SSE,9.2,-,N/A,,Clear,160,2013-12-20 01:53:00
8:53 PM,64.9,57.9,78,29.76,10.0,South,6.9,-,N/A,,Clear,170,2013-12-20 02:53:00
9:53 PM,64.9,60.1,84,29.76,10.0,SSE,13.8,-,N/A,,Clear,160,2013-12-20 03:53:00
10:53 PM,64.9,60.1,84,29.76,10.0,SSE,13.8,20.7,N/A,,Clear,160,2013-12-20 04:53:00
11:21 PM,64.4,60.8,88,29.77,10.0,South,15.0,20.7,N/A,,Mostly Cloudy,170,2013-12-20 05:21:00
11:38 PM,66.2,60.8,83,29.76,10.0,South,13.8,25.3,N/A,,Overcast,170,2013-12-20 05:38:00
11:53 PM,66.0,61.0,84,29.74,10.0,South,18.4,26.5,N/A,,Overcast,170,2013-12-20 05:53:00